Regional Weather Roundup
Issued by NWS

Home | Current Version | Previous Version | Text Only | Print | Product List | Glossary On
Versions: 1 2 3 4 5 6 7 8 9 10 11 12 13 14 15 16 17 18 19 20 21 22 23 24 25 26 27 28 29 30 31 32 33 34 35 36 37 38 39 40 41 42 43 44 45 46 47 48 49 50
000
ASUS43 KLMK 201702
RWRKY
KENTUCKY REGIONAL WEATHER ROUNDUP
NATIONAL WEATHER SERVICE LOUISVILLE KY
100 PM EDT MON OCT 20 2014

NOTE "FAIR" INDICATES FEW OR NO CLOUDS BELOW 12,000 FEET
WITH NO SIGNIFICANT WEATHER AND/OR OBSTRUCTIONS TO VISIBILITY.

KYZ001>023-026-027-061>063-070>075-201800-
WESTERN AND SOUTH CENTRAL KENTUCKY

CITY           SKY/WX    TMP DP  RH WIND       PRES   REMARKS
PADUCAH        MOSUNNY   67  51  56 SW14      30.01F
HENDERSON      MOSUNNY   64  48  55 SW15      29.98F
OWENSBORO      MOSUNNY   65  52  62 SW16G22   29.98F
HOPKINSVILLE   MOSUNNY   62  52  70 SW12      30.04F
BOWLING GREEN  PTSUNNY   61  50  67 W7        30.04F
GLASGOW        NOT AVBL
$$

KYZ024-025-028>034-038-045-046-053-201800-
NORTH CENTRAL KENTUCKY

CITY           SKY/WX    TMP DP  RH WIND       PRES   REMARKS
LOUISVILLE/SDF PTSUNNY   60  49  66 S15G24    29.97F
LOUISVILLE/LOU CLOUDY    57  50  77 S8        29.98F
FORT KNOX      PTSUNNY   60  50  70 S8        29.97F
$$

KYZ035>037-039>044-047>052-055>060-089>105-201800-
NORTHEAST KENTUCKY

CITY           SKY/WX    TMP DP  RH WIND       PRES   REMARKS
LEXINGTON      PTSUNNY   58  50  75 SW12      30.01F
COVINGTON      PTSUNNY   57  47  69 SW17G23   29.94
FRANKFORT      CLOUDY    56  49  77 SW12      29.98F
$$

KYZ054-064>069-076>088-106>120-201800-
SOUTHEAST KENTUCKY

CITY           SKY/WX    TMP DP  RH WIND       PRES   REMARKS
JACKSON        CLOUDY    54  45  71 VRB6      30.03F
LONDON         CLOUDY    61  47  59 W6        30.05F
SOMERSET       LGT RAIN  54  48  82 CALM      30.07F
MIDDLESBORO    NOT AVBL
MONTICELLO     CLOUDY    59  49  69 SW7       30.07F
$$



USA.gov is the U.S. government's official web portal to all federal, state and local government web resources and services.